Regional Weather Roundup
Issued by NWS

Home | Current Version | Previous Version | Graphics & Text | Print | Product List | Glossary Off
Versions: 1 2 3 4 5 6 7 8 9 10 11 12 13 14 15 16 17 18 19 20 21 22 23 24 25 26 27 28 29 30 31 32 33 34 35 36 37 38 39 40 41 42 43 44 45 46 47 48 49 50

000
ASUS43 KTOP 042108
RWRKS

WEATHER ROUNDUP FOR KANSAS
NATIONAL WEATHER SERVICE GOODLAND KS
400 PM CDT MON MAY 04 2015

NOTE:  "FAIR" INDICATES FEW OR NO CLOUDS BELOW 12,000 FEET WITH NO
SIGNIFICANT WEATHER AND/OR OBSTRUCTIONS TO VISIBILITY.

KSZ001>006-013>018-027>032-041>047-042200-
NORTHWEST KANSAS

CITY           SKY/WX    TMP DP  RH WIND       PRES   REMARKS
GOODLAND       PTSUNNY   64  47  53 NE13      30.07F
HAYS           PTSUNNY   75  55  50 N12       29.99F
HILL CITY      PTSUNNY   72  56  57 VRB5      30.04F
RUSSELL        PTSUNNY   73  58  59 N12G18    29.98F
$$

KSZ061>065-074>080-084>089-042200-
SOUTHWEST KANSAS

CITY           SKY/WX    TMP DP  RH WIND       PRES   REMARKS
DODGE CITY     PTSUNNY   82  51  34 SE15G22   29.97F
ELKHART          N/A     77  51  40 SE10        N/A
GARDEN CITY    MOSUNNY   80  49  33 S14G22    29.95F
LIBERAL        MOSUNNY   81  54  39 S12G21    29.98F
PRATT          MOSUNNY   81  55  41 SE16      29.98F
$$

KSZ066>073-081>083-090>101-042200-
SOUTHEAST KANSAS

CITY           SKY/WX    TMP DP  RH WIND       PRES   REMARKS
CHANUTE        PTSUNNY   81  62  52 S18G24    30.03F
COFFEYVILLE    MOSUNNY   83  62  49 S17G26    30.03F
HUTCHINSON     CLOUDY    82  62  50 S18       29.97F
MEDICINE LODGE   N/A     83  63  50 S12G21    29.95F
NEWTON         PTSUNNY   81  59  47 S22       30.00F
PARSONS        PTSUNNY   83  63  50 S14G23    30.04F
WICHITA INTL   PTSUNNY   82  61  48 S21G28    29.98F
WICHITA JABRA  PTSUNNY   80  60  50 S18G30    29.98F
WICHITA MCCONL PTSUNNY   82  63  52 S17G26    29.99F
WINFIELD       PTSUNNY   82  63  52 S20G26    30.01F
$$

KSZ007>012-019>026-033>040-048>060-102>105-042200-
NORTHEAST KANSAS

CITY           SKY/WX    TMP DP  RH WIND       PRES   REMARKS
CONCORDIA      CLOUDY    71  60  68 N12       29.99F
EMPORIA        PTSUNNY   82  60  47 S21G26    29.98F
LAWRENCE       MOSUNNY   85  59  41 S18G25    29.97F
MANHATTAN      TSTM      66  62  87 NW14G20   29.96F VSB 3/4
MARYSVILLE     CLOUDY    73  61  64 NE3       29.98F
OLATHE IND     MOSUNNY   84  61  45 S15       30.00F
OLATHE EXE     MOSUNNY   83  61  47 S13       29.99F
SALINA         CLOUDY    79  64  60 S12       29.95F
TOPEKA BILLARD PTSUNNY   84  58  40 S15G24    29.96F
TOPEKA FORBES  PTSUNNY   85  60  42 S16G23    29.96F
$$


USA.gov is the U.S. government's official web portal to all federal, state and local government web resources and services.